Franklin, VA

5:45 PM EDT on May 22, 2017 (GMT -0400)
Franklin Municipal-Rose

Weather History for KFKN - February, 2013

Change the Weather History Date:

Sunday, February 17, 2013

  Actual Average (KSFQ) Record (KSFQ)
Temperature  
Mean Temperature 30 °F -  
Max Temperature 35 °F 50 °F 78 °F (1976)
Min Temperature 26 °F 33 °F 10 °F (1958)
Degree Days  
Heating Degree Days 34    
Moisture  
Dew Point 17 °F    
Average Humidity 62    
Maximum Humidity 93    
Minimum Humidity 35    
Precipitation  
Precipitation 0.00 in - - ()
Sea Level Pressure  
Sea Level Pressure 30.04 in    
Wind  
Wind Speed 10 mph (WNW)    
Max Wind Speed 23 mph    
Max Gust Speed 30 mph    
Visibility 10 miles    
Events      
Averages and records for this station are not official NWS values.
T = Trace of Precipitation, MM = Missing Value Source: NWS Daily Summary

Daily Weather History Graph

Daily Weather History Graph

Search for Another Location

Airport or City:

Trip Planner

Search our weather history database for the weather conditions in past years. The results will help you decide how hot, cold, wet, or windy it might be!

Date:

Astronomy

Feb. 17, 2013 Rise Set
Actual Time 6:53 AM EST 5:50 PM EST
Civil Twilight 6:26 AM EST 6:16 PM EST
Nautical Twilight 5:56 AM EST 6:47 PM EST
Astronomical Twilight 5:26 AM EST 7:17 PM EST
Moon 10:57 AM EST (2/17) 12:32 AM EST (2/17)
Length of Visible Light 11h 49m
Length of Day
10h 57m
Waxing Crescent, 49% of the Moon is Illuminated
Feb 17
Waxing Crescent
Feb 17
First Quarter
Feb 25
Full
Mar 4
Last Quarter
Mar 11
New

Hourly Weather History & Observations

Time (EST) Temp. Windchill Dew Point Humidity Pressure Visibility Wind Dir Wind Speed Gust Speed Precip Events Conditions
12:15 AM 33.8 °F 28.6 °F 32.0 °F 93% 29.84 in 10.0 mi NW 5.8 mph - N/A   Clear
12:35 AM 33.8 °F 27.7 °F 30.2 °F 87% 29.84 in 10.0 mi NW 6.9 mph - N/A   Scattered Clouds
12:55 AM 32.0 °F 27.5 °F 28.4 °F 87% 29.85 in 10.0 mi NNW 4.6 mph - N/A   Clear
1:15 AM 32.0 °F 27.5 °F 28.4 °F 87% 29.85 in 10.0 mi NW 4.6 mph - N/A   Clear
1:35 AM 30.2 °F 22.6 °F 28.4 °F 93% 29.86 in 10.0 mi NW 8.1 mph - N/A   Clear
1:55 AM 30.2 °F 21.3 °F 26.6 °F 86% 29.86 in 10.0 mi NW 10.4 mph 17.3 mph N/A   Clear
2:15 AM 30.2 °F 23.4 °F 24.8 °F 80% 29.86 in 10.0 mi NW 6.9 mph - N/A   Clear
2:35 AM 30.2 °F 24.3 °F 24.8 °F 80% 29.87 in 10.0 mi NW 5.8 mph - N/A   Clear
2:55 AM 30.2 °F 22.6 °F 24.8 °F 80% 29.87 in 10.0 mi NW 8.1 mph - N/A   Clear
3:15 AM 28.4 °F 22.2 °F 24.8 °F 86% 29.88 in 10.0 mi WNW 5.8 mph - N/A   Clear
3:35 AM 28.4 °F 20.4 °F 24.8 °F 86% 29.89 in 10.0 mi WNW 8.1 mph - N/A   Clear
3:55 AM 28.4 °F 21.2 °F 26.6 °F 93% 29.89 in 10.0 mi WNW 6.9 mph - N/A   Mostly Cloudy
4:15 AM 28.4 °F 20.4 °F 26.6 °F 93% 29.90 in 10.0 mi WNW 8.1 mph - N/A   Mostly Cloudy
4:35 AM 28.4 °F 20.4 °F 26.6 °F 93% 29.90 in 10.0 mi WNW 8.1 mph - N/A   Mostly Cloudy
4:55 AM 28.4 °F 20.4 °F 24.8 °F 86% 29.91 in 10.0 mi WNW 8.1 mph - N/A   Scattered Clouds
5:15 AM 28.4 °F 19.7 °F 24.8 °F 86% 29.92 in 10.0 mi WNW 9.2 mph - N/A   Scattered Clouds
5:35 AM 28.4 °F 20.4 °F 24.8 °F 86% 29.92 in 10.0 mi WNW 8.1 mph - N/A   Scattered Clouds
5:55 AM 28.4 °F 20.4 °F 24.8 °F 86% 29.93 in 10.0 mi WNW 8.1 mph - N/A   Clear
6:15 AM 28.4 °F 19.7 °F 24.8 °F 86% 29.94 in 10.0 mi WNW 9.2 mph - N/A   Clear
6:35 AM 26.6 °F 17.5 °F 24.8 °F 93% 29.94 in 10.0 mi West 9.2 mph - N/A   Clear
6:55 AM 26.6 °F 16.2 °F 24.8 °F 93% 29.95 in 10.0 mi West 11.5 mph - N/A   Clear
7:15 AM 28.4 °F 18.0 °F 24.8 °F 86% 29.96 in 10.0 mi West 12.7 mph - N/A   Clear
7:35 AM 28.4 °F 17.0 °F 23.0 °F 80% 29.97 in 10.0 mi WNW 15.0 mph 23.0 mph N/A   Mostly Cloudy
7:55 AM 30.2 °F 18.5 °F 23.0 °F 75% 29.97 in 10.0 mi WNW 17.3 mph 21.9 mph N/A   Overcast
8:15 AM 28.4 °F 17.5 °F 21.2 °F 74% 29.98 in 10.0 mi West 13.8 mph 23.0 mph N/A   Mostly Cloudy
8:35 AM 30.2 °F 17.1 °F 19.4 °F 64% 29.99 in 10.0 mi West 21.9 mph 27.6 mph N/A   Mostly Cloudy
8:55 AM 28.4 °F 16.6 °F 19.4 °F 69% 30.00 in 10.0 mi WNW 16.1 mph 25.3 mph N/A   Overcast
9:15 AM 28.4 °F 16.6 °F 17.6 °F 64% 30.01 in 10.0 mi WNW 16.1 mph 27.6 mph N/A   Overcast
9:35 AM 30.2 °F 17.8 °F 17.6 °F 60% 30.01 in 10.0 mi WNW 19.6 mph 27.6 mph N/A   Overcast
9:55 AM 30.2 °F 19.8 °F 17.6 °F 60% 30.02 in 10.0 mi NW 13.8 mph 27.6 mph N/A   Scattered Clouds
10:15 AM 30.2 °F 17.8 °F 17.6 °F 60% 30.02 in 10.0 mi WNW 19.6 mph 27.6 mph N/A   Scattered Clouds
10:35 AM 30.2 °F 18.1 °F 19.4 °F 64% 30.02 in 10.0 mi West 18.4 mph 24.2 mph N/A   Mostly Cloudy
10:55 AM 30.2 °F 18.9 °F 17.6 °F 60% 30.03 in 10.0 mi NW 16.1 mph 27.6 mph N/A   Mostly Cloudy
11:15 AM 30.2 °F 18.5 °F 17.6 °F 60% 30.04 in 10.0 mi WNW 17.3 mph 26.5 mph N/A   Mostly Cloudy
11:35 AM 30.2 °F 17.8 °F 17.6 °F 60% 30.04 in 10.0 mi WNW 19.6 mph 25.3 mph N/A   Overcast
12:15 PM 33.8 °F 21.9 °F 17.6 °F 52% 30.04 in 10.0 mi West 21.9 mph 27.6 mph N/A   Scattered Clouds
12:35 PM 33.8 °F 23.2 °F 17.6 °F 52% 30.04 in 10.0 mi West 17.3 mph 28.8 mph N/A   Mostly Cloudy
12:55 PM 32.0 °F 20.8 °F 15.8 °F 51% 30.04 in 10.0 mi West 17.3 mph 28.8 mph N/A   Overcast
1:15 PM 33.8 °F 22.5 °F 17.6 °F 52% 30.04 in 10.0 mi West 19.6 mph 27.6 mph N/A   Mostly Cloudy
1:55 PM 32.0 °F 19.8 °F 15.8 °F 51% 30.04 in 10.0 mi WNW 20.7 mph 26.5 mph N/A   Scattered Clouds
2:15 PM 30.2 °F 18.5 °F 14.0 °F 51% 30.05 in 10.0 mi WNW 17.3 mph 25.3 mph N/A   Scattered Clouds
2:35 PM 33.8 °F 23.2 °F 14.0 °F 44% 30.05 in 10.0 mi West 17.3 mph 26.5 mph N/A   Scattered Clouds
2:55 PM 35.6 °F 24.2 °F 14.0 °F 41% 30.05 in 10.0 mi WNW 21.9 mph 29.9 mph N/A   Scattered Clouds
3:15 PM 33.8 °F 23.2 °F 12.2 °F 41% 30.05 in 10.0 mi West 17.3 mph 29.9 mph N/A   Scattered Clouds
3:35 PM 33.8 °F 23.5 °F 12.2 °F 41% 30.06 in 10.0 mi West 16.1 mph 25.3 mph N/A   Scattered Clouds
3:55 PM 33.8 °F 23.9 °F 12.2 °F 41% 30.06 in 10.0 mi WNW 15.0 mph 25.3 mph N/A   Clear
4:15 PM 33.8 °F 21.6 °F 10.4 °F 38% 30.08 in 10.0 mi WNW 23.0 mph 27.6 mph N/A   Clear
4:35 PM 33.8 °F 23.5 °F 8.6 °F 35% 30.09 in 10.0 mi WNW 16.1 mph 24.2 mph N/A   Clear
4:55 PM 33.8 °F 23.9 °F 8.6 °F 35% 30.10 in 10.0 mi WNW 15.0 mph 26.5 mph N/A   Clear
5:15 PM 32.0 °F 21.6 °F 8.6 °F 38% 30.10 in 10.0 mi WNW 15.0 mph 20.7 mph N/A   Clear
5:35 PM 30.2 °F 18.9 °F 8.6 °F 40% 30.12 in 10.0 mi WNW 16.1 mph 23.0 mph N/A   Clear
5:55 PM 30.2 °F 21.3 °F 8.6 °F 40% 30.12 in 10.0 mi WNW 10.4 mph 16.1 mph N/A   Clear
6:15 PM 30.2 °F 21.3 °F 8.6 °F 40% 30.13 in 10.0 mi West 10.4 mph - N/A   Clear
6:35 PM 30.2 °F 21.3 °F 8.6 °F 40% 30.14 in 10.0 mi WNW 10.4 mph 17.3 mph N/A   Clear
6:55 PM 28.4 °F 21.2 °F 8.6 °F 43% 30.16 in 10.0 mi WNW 6.9 mph - N/A   Clear
7:15 PM 28.4 °F 21.2 °F 10.4 °F 47% 30.17 in 10.0 mi West 6.9 mph - N/A   Clear
7:35 PM 28.4 °F 22.2 °F 10.4 °F 47% 30.17 in 10.0 mi WNW 5.8 mph - N/A   Clear
7:55 PM 28.4 °F 24.6 °F 10.4 °F 47% 30.18 in 10.0 mi WNW 3.5 mph - N/A   Clear
8:15 PM 26.6 °F 21.2 °F 10.4 °F 51% 30.18 in 10.0 mi WNW 4.6 mph - N/A   Clear
8:35 PM 28.4 °F 20.4 °F 10.4 °F 47% 30.19 in 10.0 mi West 8.1 mph - N/A   Clear
8:55 PM 28.4 °F 21.2 °F 10.4 °F 47% 30.20 in 10.0 mi WNW 6.9 mph - N/A   Clear
9:15 PM 28.4 °F 19.1 °F 10.4 °F 47% 30.21 in 10.0 mi WNW 10.4 mph - N/A   Clear
9:35 PM 28.4 °F 19.1 °F 10.4 °F 47% 30.22 in 10.0 mi WNW 10.4 mph - N/A   Clear
9:55 PM 28.4 °F 19.7 °F 10.4 °F 47% 30.23 in 10.0 mi WNW 9.2 mph - N/A   Clear
10:15 PM 26.6 °F 18.2 °F 10.4 °F 51% 30.23 in 10.0 mi WNW 8.1 mph - N/A   Clear
10:35 PM 26.6 °F 19.1 °F 10.4 °F 51% 30.24 in 10.0 mi NW 6.9 mph - N/A   Clear
10:55 PM 26.6 °F 21.2 °F 10.4 °F 51% 30.24 in 10.0 mi NW 4.6 mph - N/A   Clear
11:15 PM 26.6 °F - 10.4 °F 51% 30.24 in 10.0 mi Calm Calm - N/A   Clear
11:35 PM 26.6 °F 21.2 °F 10.4 °F 51% 30.25 in 10.0 mi NW 4.6 mph - N/A   Clear
11:55 PM 26.6 °F 22.6 °F 10.4 °F 51% 30.26 in 10.0 mi NW 3.5 mph - N/A   Clear